This is the latest recevied weather packets stored in our database for station/object KC1OEK-13. If no packets are shown the sender has not sent any weather packets the latest 10 day(s).
| Time | Temp. | Humidity | Pressure | Rain* | Wind** | Luminosity | Snow |
|---|---|---|---|---|---|---|---|
| 1778126726 | 10.56° C | 98% | 1010.4 hPa | 0 mm | - | 0 W/m² | - |
| 1778126421 | 10.56° C | 98% | 1010.2 hPa | 0 mm | - | 0 W/m² | - |
| 1778126118 | 10° C | 98% | 1009.9 hPa | 0 mm | - | 0 W/m² | - |
| 1778125815 | 10.56° C | 98% | 1010.2 hPa | 0 mm | - | 0 W/m² | - |
| 1778125511 | 10.56° C | 97% | 1010.1 hPa | 0 mm | - | 0 W/m² | - |
| 1778125210 | 10.56° C | 97% | 1010.3 hPa | 0 mm | - | 0 W/m² | - |
| 1778124907 | 10.56° C | 97% | 1010.2 hPa | 0 mm | - | 0 W/m² | - |
| 1778124604 | 10.56° C | 97% | 1010.3 hPa | 0 mm | - | 0 W/m² | - |
| 1778124301 | 10.56° C | 97% | 1010.4 hPa | 0 mm | - | 0 W/m² | - |
| 1778123997 | 10.56° C | 97% | 1010.5 hPa | 0 mm | - | 0 W/m² | - |
| 1778123693 | 10.56° C | 97% | 1010.3 hPa | 0 mm | - | 0 W/m² | - |
| 1778123390 | 10.56° C | 98% | 1010.3 hPa | 0 mm | - | 0 W/m² | - |
| 1778123087 | 10.56° C | 98% | 1010 hPa | 0 mm | - | 0 W/m² | - |
| 1778122785 | 11.11° C | 98% | 1010.4 hPa | 0 mm | - | 0 W/m² | - |
| 1778122482 | 10.56° C | 98% | 1010.4 hPa | 0 mm | - | 0 W/m² | - |
| 1778122179 | 10.56° C | 98% | 1010.5 hPa | 0 mm | - | 0 W/m² | - |
| 1778121877 | 11.11° C | 98% | 1010.5 hPa | 0 mm | - | 0 W/m² | - |
| 1778121572 | 11.11° C | 99% | 1010.7 hPa | 0 mm | - | 0 W/m² | - |
| 1778121269 | 11.67° C | 98% | 1010.1 hPa | 0 mm | - | 0 W/m² | - |
| 1778120966 | 11.67° C | 98% | 1010.3 hPa | 1.78 mm | - | 0 W/m² | - |
| 1778120664 | 11.67° C | 98% | 1010.2 hPa | 1.78 mm | - | 0 W/m² | - |
| 1778120359 | 11.67° C | 98% | 1010.3 hPa | 1.78 mm | - | 0 W/m² | - |
| 1778120054 | 11.67° C | 98% | 1010.4 hPa | 1.78 mm | - | 0 W/m² | - |
| 1778119753 | 11.67° C | 98% | 1010.4 hPa | 3.05 mm | - | 0 W/m² | - |
| 1778119449 | 12.78° C | 98% | 1010.1 hPa | 8.89 mm | - | 0 W/m² | - |
* Rain latest hour (hover to see other rain measurements)
** Current wind speed in m/s (hover to see current wind gust speed)